Time,TemperatureF,DewpointF,PressureIn,WindDirection,WindDirectionDegrees,WindSpeedMPH,WindSpeedGustMPH,Humidity,HourlyPrecipIn,Conditions,Clouds,dailyrainin,SoftwareType,DateUTC
2013-03-17 00:00:00,34.1,16.9,29.85,ENE,64,2.0,5.0,49,0.00,,,0.00,Wunderground v.1.15,2013-03-17 04:00:00,
2013-03-17 00:01:00,34.1,16.9,29.85,ENE,64,2.0,5.0,49,0.00,,,0.00,Wunderground v.1.15,2013-03-17 04:01:00,
2013-03-17 00:02:00,34.1,16.9,29.85,ENE,64,2.0,5.0,49,0.00,,,0.00,Wunderground v.1.15,2013-03-17 04:02:00,
2013-03-17 00:04:00,33.8,16.2,29.85,ENE,57,5.0,5.0,48,0.00,,,0.00,Wunderground v.1.15,2013-03-17 04:04:00,
2013-03-17 00:10:00,33.5,15.9,29.85,NE,40,7.0,7.0,48,0.00,,,0.00,Wunderground v.1.15,2013-03-17 04:10:00,
2013-03-17 00:15:00,33.2,15.1,29.85,East,79,5.0,7.0,47,0.00,,,0.00,Wunderground v.1.15,2013-03-17 04:15:00,
2013-03-17 00:21:00,32.9,14.8,29.85,NE,44,1.0,5.0,47,0.00,,,0.00,Wunderground v.1.15,2013-03-17 04:21:00,
2013-03-17 00:27:00,32.6,14.1,29.84,NE,45,1.0,8.0,46,0.00,,,0.00,Wunderground v.1.15,2013-03-17 04:27:00,
2013-03-17 00:32:00,32.4,14.4,29.85,NE,34,4.0,4.0,47,0.00,,,0.00,Wunderground v.1.15,2013-03-17 04:32:00,
2013-03-17 00:37:00,32.2,13.7,29.85,North,9,6.0,6.0,46,0.00,,,0.00,Wunderground v.1.15,2013-03-17 04:37:00,
2013-03-17 00:43:00,32.0,13.5,29.85,NE,42,1.0,4.0,46,0.00,,,0.00,Wunderground v.1.15,2013-03-17 04:43:00,
2013-03-17 00:48:00,31.9,13.4,29.85,NNE,26,0.0,4.0,46,0.00,,,0.00,Wunderground v.1.15,2013-03-17 04:48:00,
2013-03-17 00:53:00,31.7,13.7,29.85,North,5,2.0,5.0,47,0.00,,,0.00,Wunderground v.1.15,2013-03-17 04:53:00,
2013-03-17 00:59:00,31.5,13.6,29.85,NNE,12,4.0,6.0,47,0.00,,,0.00,Wunderground v.1.15,2013-03-17 04:59:00,
2013-03-17 01:04:00,31.4,13.5,29.85,North,11,2.0,6.0,47,0.00,,,0.00,Wunderground v.1.15,2013-03-17 05:04:00,
2013-03-17 01:10:00,31.1,13.2,29.85,NNE,16,4.0,4.0,47,0.00,,,0.00,Wunderground v.1.15,2013-03-17 05:10:00,
2013-03-17 01:15:00,31.0,13.1,29.86,NNE,20,2.0,4.0,47,0.00,,,0.00,Wunderground v.1.15,2013-03-17 05:15:00,
2013-03-17 01:20:00,30.9,12.5,29.86,NNE,22,2.0,3.0,46,0.00,,,0.00,Wunderground v.1.15,2013-03-17 05:20:00,
2013-03-17 01:25:00,30.8,12.4,29.86,ENE,60,3.0,3.0,46,0.00,,,0.00,Wunderground v.1.15,2013-03-17 05:25:00,
2013-03-17 01:31:00,30.7,12.8,29.86,ENE,60,3.0,3.0,47,0.00,,,0.00,Wunderground v.1.15,2013-03-17 05:31:00,
2013-03-17 01:36:00,30.6,12.7,29.86,ENE,60,0.0,3.0,47,0.00,,,0.00,Wunderground v.1.15,2013-03-17 05:36:00,
2013-03-17 01:42:00,30.4,13.0,29.86,ENE,59,1.0,1.0,48,0.00,,,0.00,Wunderground v.1.15,2013-03-17 05:42:00,
2013-03-17 01:47:00,30.3,12.5,29.86,ENE,59,0.0,1.0,47,0.00,,,0.00,Wunderground v.1.15,2013-03-17 05:47:00,
2013-03-17 01:53:00,30.1,12.7,29.86,ENE,60,0.0,1.0,48,0.00,,,0.00,Wunderground v.1.15,2013-03-17 05:53:00,
2013-03-17 01:58:00,30.0,12.7,29.86,ENE,59,0.0,1.0,48,0.00,,,0.00,Wunderground v.1.15,2013-03-17 05:58:00,
2013-03-17 02:03:00,29.9,12.6,29.86,ENE,59,2.0,4.0,48,0.00,,,0.00,Wunderground v.1.15,2013-03-17 06:03:00,
2013-03-17 02:08:00,29.7,12.4,29.87,ENE,60,0.0,4.0,48,0.00,,,0.00,Wunderground v.1.15,2013-03-17 06:08:00,
2013-03-17 02:13:00,29.6,12.3,29.87,ENE,59,0.0,2.0,48,0.00,,,0.00,Wunderground v.1.15,2013-03-17 06:13:00,
2013-03-17 02:18:00,29.5,13.1,29.87,ENE,60,0.0,2.0,50,0.00,,,0.00,Wunderground v.1.15,2013-03-17 06:18:00,
2013-03-17 02:23:00,29.4,12.6,29.87,ENE,59,0.0,1.0,49,0.00,,,0.00,Wunderground v.1.15,2013-03-17 06:23:00,
2013-03-17 02:28:00,29.3,12.9,29.87,ENE,60,0.0,1.0,50,0.00,,,0.00,Wunderground v.1.15,2013-03-17 06:28:00,
2013-03-17 02:33:00,29.2,12.8,29.86,ENE,60,0.0,0.0,50,0.00,,,0.00,Wunderground v.1.15,2013-03-17 06:33:00,
2013-03-17 02:38:00,29.2,12.8,29.87,ENE,60,0.0,0.0,50,0.00,,,0.00,Wunderground v.1.15,2013-03-17 06:38:00,
2013-03-17 02:43:00,29.3,12.9,29.86,ENE,60,0.0,0.0,50,0.00,,,0.00,Wunderground v.1.15,2013-03-17 06:43:00,
2013-03-17 02:48:00,29.2,12.8,29.86,ENE,60,0.0,0.0,50,0.00,,,0.00,Wunderground v.1.15,2013-03-17 06:48:00,
2013-03-17 02:53:00,29.1,13.2,29.86,ENE,60,0.0,0.0,51,0.00,,,0.00,Wunderground v.1.15,2013-03-17 06:53:00,
2013-03-17 02:58:00,29.1,13.6,29.86,ENE,60,0.0,0.0,52,0.00,,,0.00,Wunderground v.1.15,2013-03-17 06:58:00,
2013-03-17 03:03:00,28.9,13.5,29.86,ENE,59,0.0,1.0,52,0.00,,,0.00,Wunderground v.1.15,2013-03-17 07:03:00,
2013-03-17 03:08:00,28.9,13.5,29.86,ENE,60,0.0,1.0,52,0.00,,,0.00,Wunderground v.1.15,2013-03-17 07:08:00,
2013-03-17 03:13:00,28.8,13.4,29.86,ENE,60,0.0,0.0,52,0.00,,,0.00,Wunderground v.1.15,2013-03-17 07:13:00,
2013-03-17 03:18:00,28.7,13.7,29.86,ENE,60,0.0,0.0,53,0.00,,,0.00,Wunderground v.1.15,2013-03-17 07:18:00,
2013-03-17 03:23:00,28.5,14.4,29.86,ENE,59,0.0,0.0,55,0.00,,,0.00,Wunderground v.1.15,2013-03-17 07:23:00,
2013-03-17 03:28:00,28.4,14.7,29.87,ENE,60,0.0,2.0,56,0.00,,,0.00,Wunderground v.1.15,2013-03-17 07:28:00,
2013-03-17 03:33:00,28.3,14.6,29.86,ENE,59,0.0,2.0,56,0.00,,,0.00,Wunderground v.1.15,2013-03-17 07:33:00,
2013-03-17 03:38:00,28.2,14.5,29.87,ENE,59,2.0,2.0,56,0.00,,,0.00,Wunderground v.1.15,2013-03-17 07:38:00,
2013-03-17 03:43:00,28.2,14.5,29.86,ENE,59,0.0,2.0,56,0.00,,,0.00,Wunderground v.1.15,2013-03-17 07:43:00,
2013-03-17 03:48:00,28.2,14.5,29.86,ENE,60,0.0,2.0,56,0.00,,,0.00,Wunderground v.1.15,2013-03-17 07:48:00,
2013-03-17 03:53:00,28.1,14.4,29.87,ENE,60,2.0,2.0,56,0.00,,,0.00,Wunderground v.1.15,2013-03-17 07:53:00,
2013-03-17 03:58:00,28.1,14.8,29.87,ENE,59,1.0,2.0,57,0.00,,,0.00,Wunderground v.1.15,2013-03-17 07:58:00,
2013-03-17 04:04:00,28.0,14.7,29.88,ENE,60,2.0,2.0,57,0.00,,,0.00,Wunderground v.1.15,2013-03-17 08:04:00,
2013-03-17 04:09:00,28.0,14.7,29.88,ENE,60,2.0,3.0,57,0.00,,,0.00,Wunderground v.1.15,2013-03-17 08:09:00,
2013-03-17 04:14:00,27.8,14.5,29.88,NE,51,1.0,3.0,57,0.00,,,0.00,Wunderground v.1.15,2013-03-17 08:14:00,
2013-03-17 04:19:00,27.7,14.4,29.88,NE,51,0.0,3.0,57,0.00,,,0.00,Wunderground v.1.15,2013-03-17 08:19:00,
2013-03-17 04:24:00,27.6,14.7,29.88,NE,51,0.0,2.0,58,0.00,,,0.00,Wunderground v.1.15,2013-03-17 08:24:00,
2013-03-17 04:29:00,27.5,15.0,29.88,NE,51,2.0,3.0,59,0.00,,,0.00,Wunderground v.1.15,2013-03-17 08:29:00,
2013-03-17 04:34:00,27.5,14.6,29.88,NE,51,0.0,3.0,58,0.00,,,0.00,Wunderground v.1.15,2013-03-17 08:34:00,
2013-03-17 04:39:00,27.4,14.5,29.89,NE,51,1.0,3.0,58,0.00,,,0.00,Wunderground v.1.15,2013-03-17 08:39:00,
2013-03-17 04:44:00,27.4,14.5,29.88,NE,51,1.0,2.0,58,0.00,,,0.00,Wunderground v.1.15,2013-03-17 08:44:00,
2013-03-17 04:49:00,27.3,14.5,29.89,NE,51,1.0,2.0,58,0.00,,,0.00,Wunderground v.1.15,2013-03-17 08:49:00,
2013-03-17 04:54:00,27.2,14.4,29.89,NE,52,0.0,2.0,58,0.00,,,0.00,Wunderground v.1.15,2013-03-17 08:54:00,
2013-03-17 04:59:00,27.2,14.8,29.89,NE,51,0.0,2.0,59,0.00,,,0.00,Wunderground v.1.15,2013-03-17 08:59:00,
2013-03-17 05:04:00,27.1,14.7,29.90,NE,52,2.0,2.0,59,0.00,,,0.00,Wunderground v.1.15,2013-03-17 09:04:00,
2013-03-17 05:09:00,27.0,14.6,29.90,NE,51,0.0,3.0,59,0.00,,,0.00,Wunderground v.1.15,2013-03-17 09:09:00,
2013-03-17 05:14:00,26.9,14.5,29.90,NE,51,1.0,2.0,59,0.00,,,0.00,Wunderground v.1.15,2013-03-17 09:14:00,
2013-03-17 05:19:00,26.8,14.4,29.90,NE,51,1.0,2.0,59,0.00,,,0.00,Wunderground v.1.15,2013-03-17 09:19:00,
2013-03-17 05:24:00,26.7,14.7,29.90,NE,51,1.0,2.0,60,0.00,,,0.00,Wunderground v.1.15,2013-03-17 09:24:00,
2013-03-17 05:29:00,26.5,14.5,29.90,NE,51,1.0,2.0,60,0.00,,,0.00,Wunderground v.1.15,2013-03-17 09:29:00,
2013-03-17 05:34:00,26.5,14.5,29.90,NE,51,2.0,3.0,60,0.00,,,0.00,Wunderground v.1.15,2013-03-17 09:34:00,
2013-03-17 05:39:00,26.4,14.8,29.91,NE,52,2.0,3.0,61,0.00,,,0.00,Wunderground v.1.15,2013-03-17 09:39:00,
2013-03-17 05:44:00,26.3,14.7,29.91,NE,51,2.0,4.0,61,0.00,,,0.00,Wunderground v.1.15,2013-03-17 09:44:00,
2013-03-17 05:49:00,26.2,14.9,29.91,NE,51,0.0,4.0,62,0.00,,,0.00,Wunderground v.1.15,2013-03-17 09:49:00,
2013-03-17 05:54:00,26.2,14.6,29.90,NE,52,2.0,2.0,61,0.00,,,0.00,Wunderground v.1.15,2013-03-17 09:54:00,
2013-03-17 05:59:00,26.2,14.6,29.91,NE,52,1.0,2.0,61,0.00,,,0.00,Wunderground v.1.15,2013-03-17 09:59:00,
2013-03-17 06:04:00,26.1,14.5,29.91,NE,51,1.0,3.0,61,0.00,,,0.00,Wunderground v.1.15,2013-03-17 10:04:00,
2013-03-17 06:09:00,26.0,14.8,29.91,NE,51,0.0,3.0,62,0.00,,,0.00,Wunderground v.1.15,2013-03-17 10:09:00,
2013-03-17 06:14:00,26.0,14.8,29.91,NE,51,3.0,4.0,62,0.00,,,0.00,Wunderground v.1.15,2013-03-17 10:14:00,
2013-03-17 06:19:00,25.9,14.7,29.91,NE,51,4.0,4.0,62,0.00,,,0.00,Wunderground v.1.15,2013-03-17 10:19:00,
2013-03-17 06:24:00,25.8,14.6,29.91,North,9,3.0,4.0,62,0.00,,,0.00,Wunderground v.1.15,2013-03-17 10:24:00,
2013-03-17 06:29:00,25.7,14.1,29.91,NNW,334,2.0,3.0,61,0.00,,,0.00,Wunderground v.1.15,2013-03-17 10:29:00,
2013-03-17 06:35:00,25.5,14.3,29.91,WNW,295,2.0,5.0,62,0.00,,,0.00,Wunderground v.1.15,2013-03-17 10:35:00,
2013-03-17 06:40:00,25.4,14.2,29.91,NW,309,3.0,3.0,62,0.00,,,0.00,Wunderground v.1.15,2013-03-17 10:40:00,
2013-03-17 06:45:00,25.3,14.1,29.91,NW,317,5.0,5.0,62,0.00,,,0.00,Wunderground v.1.15,2013-03-17 10:45:00,
2013-03-17 06:50:00,25.1,14.3,29.91,NW,310,4.0,4.0,63,0.00,,,0.00,Wunderground v.1.15,2013-03-17 10:50:00,
2013-03-17 06:55:00,25.1,14.3,29.91,WNW,302,2.0,5.0,63,0.00,,,0.00,Wunderground v.1.15,2013-03-17 10:55:00,
2013-03-17 07:00:00,25.0,14.2,29.92,WNW,301,4.0,4.0,63,0.00,,,0.00,Wunderground v.1.15,2013-03-17 11:00:00,
2013-03-17 07:05:00,25.0,14.5,29.93,WNW,300,3.0,4.0,64,0.00,,,0.00,Wunderground v.1.15,2013-03-17 11:05:00,
2013-03-17 07:10:00,25.0,14.5,29.93,WNW,302,2.0,2.0,64,0.00,,,0.00,Wunderground v.1.15,2013-03-17 11:10:00,
2013-03-17 07:15:00,25.0,14.5,29.93,WNW,300,1.0,3.0,64,0.00,,,0.00,Wunderground v.1.15,2013-03-17 11:15:00,
2013-03-17 07:20:00,25.1,14.6,29.94,WNW,291,1.0,2.0,64,0.00,,,0.00,Wunderground v.1.15,2013-03-17 11:20:00,
2013-03-17 07:25:00,25.2,15.1,29.94,WNW,291,1.0,4.0,65,0.00,,,0.00,Wunderground v.1.15,2013-03-17 11:25:00,
2013-03-17 07:30:00,25.3,15.2,29.94,WNW,293,1.0,2.0,65,0.00,,,0.00,Wunderground v.1.15,2013-03-17 11:30:00,
2013-03-17 07:35:00,25.4,14.9,29.94,West,281,2.0,4.0,64,0.00,,,0.00,Wunderground v.1.15,2013-03-17 11:35:00,
2013-03-17 07:40:00,25.6,15.1,29.95,West,280,1.0,4.0,64,0.00,,,0.00,Wunderground v.1.15,2013-03-17 11:40:00,
2013-03-17 07:45:00,25.9,15.0,29.96,West,281,0.0,4.0,63,0.00,,,0.00,Wunderground v.1.15,2013-03-17 11:45:00,
2013-03-17 07:50:00,26.2,14.9,29.96,West,276,0.0,2.0,62,0.00,,,0.00,Wunderground v.1.15,2013-03-17 11:50:00,
2013-03-17 07:55:00,26.5,14.9,29.96,NW,307,5.0,5.0,61,0.00,,,0.00,Wunderground v.1.15,2013-03-17 11:55:00,
2013-03-17 08:00:00,26.7,15.0,29.97,WNW,296,3.0,4.0,61,0.00,,,0.00,Wunderground v.1.15,2013-03-17 12:00:00,
2013-03-17 08:05:00,27.0,14.6,29.97,NW,313,2.0,6.0,59,0.00,,,0.00,Wunderground v.1.15,2013-03-17 12:05:00,
2013-03-17 08:10:00,27.3,14.8,29.98,West,271,2.0,4.0,59,0.00,,,0.00,Wunderground v.1.15,2013-03-17 12:10:00,
2013-03-17 08:15:00,27.6,14.7,29.98,WNW,296,2.0,7.0,58,0.00,,,0.00,Wunderground v.1.15,2013-03-17 12:15:00,
2013-03-17 08:20:00,27.9,14.6,29.99,NNW,348,4.0,4.0,57,0.00,,,0.00,Wunderground v.1.15,2013-03-17 12:20:00,
2013-03-17 08:25:00,28.1,14.0,29.99,NW,313,6.0,8.0,55,0.00,,,0.00,Wunderground v.1.15,2013-03-17 12:25:00,
2013-03-17 08:30:00,28.3,14.6,29.99,NNW,348,6.0,11.0,56,0.00,,,0.00,Wunderground v.1.15,2013-03-17 12:30:00,
2013-03-17 08:35:00,28.5,14.4,29.99,WNW,295,7.0,11.0,55,0.00,,,0.00,Wunderground v.1.15,2013-03-17 12:35:00,
2013-03-17 08:40:00,28.8,15.1,30.00,NW,317,4.0,12.0,56,0.00,,,0.00,Wunderground v.1.15,2013-03-17 12:40:00,
2013-03-17 08:45:00,29.0,14.8,30.00,NW,323,9.0,13.0,55,0.00,,,0.00,Wunderground v.1.15,2013-03-17 12:45:00,
2013-03-17 08:50:00,29.1,14.5,29.99,NW,318,11.0,15.0,54,0.00,,,0.00,Wunderground v.1.15,2013-03-17 12:50:00,
2013-03-17 08:55:00,29.2,15.0,29.99,NW,326,8.0,16.0,55,0.00,,,0.00,Wunderground v.1.15,2013-03-17 12:55:00,
2013-03-17 09:00:00,29.3,15.1,29.99,NNW,346,8.0,14.0,55,0.00,,,0.00,Wunderground v.1.15,2013-03-17 13:00:00,
2013-03-17 09:05:00,29.6,15.4,29.99,WNW,284,0.0,14.0,55,0.00,,,0.00,Wunderground v.1.15,2013-03-17 13:05:00,
2013-03-17 09:11:00,30.0,15.8,29.99,NNW,346,13.0,13.0,55,0.00,,,0.00,Wunderground v.1.15,2013-03-17 13:11:00,
2013-03-17 09:16:00,30.2,15.1,29.99,NNW,348,4.0,17.0,53,0.00,,,0.00,Wunderground v.1.15,2013-03-17 13:16:00,
2013-03-17 09:21:00,30.3,14.8,29.99,NNW,327,15.0,15.0,52,0.00,,,0.00,Wunderground v.1.15,2013-03-17 13:21:00,
2013-03-17 09:26:00,30.3,13.9,29.99,NNW,333,12.0,17.0,50,0.00,,,0.00,Wunderground v.1.15,2013-03-17 13:26:00,
2013-03-17 09:31:00,30.4,13.5,29.99,NW,311,3.0,10.0,49,0.00,,,0.00,Wunderground v.1.15,2013-03-17 13:31:00,
2013-03-17 09:36:00,30.5,13.6,30.00,WNW,300,9.0,15.0,49,0.00,,,0.00,Wunderground v.1.15,2013-03-17 13:36:00,
2013-03-17 09:41:00,30.6,12.7,30.00,NW,318,6.0,12.0,47,0.00,,,0.00,Wunderground v.1.15,2013-03-17 13:41:00,
2013-03-17 09:46:00,31.0,13.1,30.00,NW,325,9.0,14.0,47,0.00,,,0.00,Wunderground v.1.15,2013-03-17 13:46:00,
2013-03-17 09:51:00,31.4,13.5,30.00,NNW,340,9.0,11.0,47,0.00,,,0.00,Wunderground v.1.15,2013-03-17 13:51:00,
2013-03-17 09:56:00,31.8,12.8,30.00,WNW,300,7.0,15.0,45,0.00,,,0.00,Wunderground v.1.15,2013-03-17 13:56:00,
2013-03-17 10:01:00,32.0,12.5,29.99,NNW,333,8.0,19.0,44,0.00,,,0.00,Wunderground v.1.15,2013-03-17 14:01:00,
2013-03-17 10:06:00,32.1,12.6,29.99,NNW,327,3.0,19.0,44,0.00,,,0.00,Wunderground v.1.15,2013-03-17 14:06:00,
2013-03-17 10:12:00,32.2,12.2,29.99,NNW,336,9.0,12.0,43,0.00,,,0.00,Wunderground v.1.15,2013-03-17 14:12:00,
2013-03-17 10:17:00,32.5,12.5,29.99,NW,304,4.0,13.0,43,0.00,,,0.00,Wunderground v.1.15,2013-03-17 14:17:00,
2013-03-17 10:22:00,32.8,12.2,29.99,NNW,329,5.0,11.0,42,0.00,,,0.00,Wunderground v.1.15,2013-03-17 14:22:00,
2013-03-17 10:27:00,33.1,12.5,29.99,WNW,291,6.0,12.0,42,0.00,,,0.00,Wunderground v.1.15,2013-03-17 14:27:00,
2013-03-17 10:32:00,33.6,12.9,29.99,NW,306,6.0,17.0,42,0.00,,,0.00,Wunderground v.1.15,2013-03-17 14:32:00,
2013-03-17 10:37:00,34.0,12.7,29.99,North,350,4.0,17.0,41,0.00,,,0.00,Wunderground v.1.15,2013-03-17 14:37:00,
2013-03-17 10:42:00,34.4,12.0,29.99,NNW,342,10.0,14.0,39,0.00,,,0.00,Wunderground v.1.15,2013-03-17 14:42:00,
2013-03-17 10:47:00,34.4,13.1,29.99,NW,321,7.0,18.0,41,0.00,,,0.00,Wunderground v.1.15,2013-03-17 14:47:00,
2013-03-17 10:52:00,34.6,13.3,29.99,NW,320,7.0,13.0,41,0.00,,,0.00,Wunderground v.1.15,2013-03-17 14:52:00,
2013-03-17 10:57:00,34.8,13.5,29.99,West,265,11.0,15.0,41,0.00,,,0.00,Wunderground v.1.15,2013-03-17 14:57:00,
2013-03-17 11:02:00,35.1,13.7,29.99,NW,317,12.0,13.0,41,0.00,,,0.00,Wunderground v.1.15,2013-03-17 15:02:00,
2013-03-17 11:07:00,35.1,12.6,29.99,NNW,331,5.0,14.0,39,0.00,,,0.00,Wunderground v.1.15,2013-03-17 15:07:00,
2013-03-17 11:12:00,35.3,13.3,29.99,NW,319,13.0,13.0,40,0.00,,,0.00,Wunderground v.1.15,2013-03-17 15:12:00,
2013-03-17 11:17:00,35.6,13.0,30.00,West,274,6.0,18.0,39,0.00,,,0.00,Wunderground v.1.15,2013-03-17 15:17:00,
2013-03-17 11:22:00,35.7,13.1,30.00,WNW,288,6.0,15.0,39,0.00,,,0.00,Wunderground v.1.15,2013-03-17 15:22:00,
2013-03-17 11:27:00,35.8,13.8,30.00,WNW,282,8.0,15.0,40,0.00,,,0.00,Wunderground v.1.15,2013-03-17 15:27:00,
2013-03-17 11:32:00,35.8,14.4,30.00,West,267,4.0,16.0,41,0.00,,,0.00,Wunderground v.1.15,2013-03-17 15:32:00,
2013-03-17 11:37:00,35.9,13.3,30.00,NW,313,11.0,16.0,39,0.00,,,0.00,Wunderground v.1.15,2013-03-17 15:37:00,
2013-03-17 11:42:00,35.9,14.5,30.00,WNW,284,5.0,12.0,41,0.00,,,0.00,Wunderground v.1.15,2013-03-17 15:42:00,
2013-03-17 11:47:00,36.5,14.4,30.00,WNW,300,4.0,17.0,40,0.00,,,0.00,Wunderground v.1.15,2013-03-17 15:47:00,
2013-03-17 11:52:00,36.9,14.8,30.00,NW,315,6.0,11.0,40,0.00,,,0.00,Wunderground v.1.15,2013-03-17 15:52:00,
2013-03-17 11:57:00,37.2,14.5,30.00,NW,309,5.0,15.0,39,0.00,,,0.00,Wunderground v.1.15,2013-03-17 15:57:00,
2013-03-17 12:02:00,37.3,14.0,30.00,WNW,292,10.0,17.0,38,0.00,,,0.00,Wunderground v.1.15,2013-03-17 16:02:00,
2013-03-17 12:07:00,37.1,13.2,30.00,WNW,290,17.0,21.0,37,0.00,,,0.00,Wunderground v.1.15,2013-03-17 16:07:00,
2013-03-17 12:13:00,36.8,12.9,30.00,NW,323,11.0,17.0,37,0.00,,,0.00,Wunderground v.1.15,2013-03-17 16:13:00,
2013-03-17 12:17:00,36.6,13.4,30.00,NNW,333,15.0,17.0,38,0.00,,,0.00,Wunderground v.1.15,2013-03-17 16:17:00,
2013-03-17 12:22:00,36.6,12.7,30.00,NNW,329,7.0,16.0,37,0.00,,,0.00,Wunderground v.1.15,2013-03-17 16:22:00,
2013-03-17 12:28:00,36.8,13.5,30.00,North,349,9.0,21.0,38,0.00,,,0.00,Wunderground v.1.15,2013-03-17 16:28:00,
2013-03-17 12:33:00,36.8,12.9,30.00,NW,304,8.0,20.0,37,0.00,,,0.00,Wunderground v.1.15,2013-03-17 16:33:00,
2013-03-17 12:38:00,36.9,12.4,30.00,NW,312,8.0,20.0,36,0.00,,,0.00,Wunderground v.1.15,2013-03-17 16:38:00,
2013-03-17 12:43:00,37.3,12.7,30.00,NNW,338,13.0,21.0,36,0.00,,,0.00,Wunderground v.1.15,2013-03-17 16:43:00,
2013-03-17 12:48:00,37.3,12.1,30.00,NNW,333,11.0,21.0,35,0.00,,,0.00,Wunderground v.1.15,2013-03-17 16:48:00,
2013-03-17 12:53:00,37.3,12.1,30.00,NE,34,3.0,16.0,35,0.00,,,0.00,Wunderground v.1.15,2013-03-17 16:53:00,
2013-03-17 12:58:00,37.2,12.0,30.00,NNW,341,9.0,19.0,35,0.00,,,0.00,Wunderground v.1.15,2013-03-17 16:58:00,
2013-03-17 13:03:00,36.8,11.0,30.00,WNW,290,3.0,17.0,34,0.00,,,0.00,Wunderground v.1.15,2013-03-17 17:03:00,
2013-03-17 13:08:00,36.7,11.6,30.00,NNW,331,5.0,19.0,35,0.00,,,0.00,Wunderground v.1.15,2013-03-17 17:08:00,
2013-03-17 13:13:00,36.8,11.0,30.00,NW,309,18.0,18.0,34,0.00,,,0.00,Wunderground v.1.15,2013-03-17 17:13:00,
2013-03-17 13:18:00,36.8,11.0,30.00,NNW,331,12.0,20.0,34,0.00,,,0.00,Wunderground v.1.15,2013-03-17 17:18:00,
2013-03-17 13:23:00,36.9,11.8,29.99,NNW,336,16.0,17.0,35,0.00,,,0.00,Wunderground v.1.15,2013-03-17 17:23:00,
2013-03-17 13:28:00,37.1,10.6,30.00,NNE,32,4.0,17.0,33,0.00,,,0.00,Wunderground v.1.15,2013-03-17 17:28:00,
2013-03-17 13:33:00,37.4,11.5,29.99,NNW,344,9.0,19.0,34,0.00,,,0.00,Wunderground v.1.15,2013-03-17 17:33:00,
2013-03-17 13:39:00,37.7,11.8,30.00,NW,317,8.0,20.0,34,0.00,,,0.00,Wunderground v.1.15,2013-03-17 17:39:00,
2013-03-17 13:44:00,37.8,11.2,30.00,NNW,334,7.0,12.0,33,0.00,,,0.00,Wunderground v.1.15,2013-03-17 17:44:00,
2013-03-17 13:49:00,37.8,11.2,29.99,North,355,12.0,15.0,33,0.00,,,0.00,Wunderground v.1.15,2013-03-17 17:49:00,
2013-03-17 13:54:00,37.8,10.5,30.00,NW,311,5.0,12.0,32,0.00,,,0.00,Wunderground v.1.15,2013-03-17 17:54:00,
2013-03-17 13:59:00,37.9,11.3,30.00,NNW,338,12.0,15.0,33,0.00,,,0.00,Wunderground v.1.15,2013-03-17 17:59:00,
2013-03-17 14:04:00,38.4,10.3,29.99,NW,309,10.0,21.0,31,0.00,,,0.00,Wunderground v.1.15,2013-03-17 18:04:00,
2013-03-17 14:09:00,38.3,9.5,29.99,NNE,15,4.0,21.0,30,0.00,,,0.00,Wunderground v.1.15,2013-03-17 18:09:00,
2013-03-17 14:14:00,38.0,10.0,30.00,North,355,10.0,18.0,31,0.00,,,0.00,Wunderground v.1.15,2013-03-17 18:14:00,
2013-03-17 14:19:00,38.0,9.3,30.00,NW,322,9.0,19.0,30,0.00,,,0.00,Wunderground v.1.15,2013-03-17 18:19:00,
2013-03-17 14:24:00,37.9,9.2,29.99,NNW,344,7.0,15.0,30,0.00,,,0.00,Wunderground v.1.15,2013-03-17 18:24:00,
2013-03-17 14:29:00,37.8,9.1,30.00,NW,321,12.0,22.0,30,0.00,,,0.00,Wunderground v.1.15,2013-03-17 18:29:00,
2013-03-17 14:34:00,37.8,9.8,30.00,North,360,3.0,15.0,31,0.00,,,0.00,Wunderground v.1.15,2013-03-17 18:34:00,
2013-03-17 14:39:00,37.9,9.2,30.00,NNW,329,6.0,19.0,30,0.00,,,0.00,Wunderground v.1.15,2013-03-17 18:39:00,
2013-03-17 14:44:00,37.8,9.1,30.00,North,350,15.0,19.0,30,0.00,,,0.00,Wunderground v.1.15,2013-03-17 18:44:00,
2013-03-17 14:49:00,38.0,10.0,30.01,WSW,237,5.0,19.0,31,0.00,,,0.00,Wunderground v.1.15,2013-03-17 18:49:00,
2013-03-17 14:54:00,38.1,10.1,30.00,NW,320,13.0,19.0,31,0.00,,,0.00,Wunderground v.1.15,2013-03-17 18:54:00,
2013-03-17 14:59:00,38.0,8.5,30.01,NNW,336,7.0,19.0,29,0.00,,,0.00,Wunderground v.1.15,2013-03-17 18:59:00,
2013-03-17 15:04:00,37.7,9.0,30.01,NW,323,16.0,21.0,30,0.00,,,0.00,Wunderground v.1.15,2013-03-17 19:04:00,
2013-03-17 15:09:00,37.5,8.1,30.01,NNW,327,22.0,22.0,29,0.00,,,0.00,Wunderground v.1.15,2013-03-17 19:09:00,
2013-03-17 15:14:00,37.3,8.7,30.01,NW,311,8.0,22.0,30,0.00,,,0.00,Wunderground v.1.15,2013-03-17 19:14:00,
2013-03-17 15:19:00,37.1,9.2,30.01,NNW,327,13.0,22.0,31,0.00,,,0.00,Wunderground v.1.15,2013-03-17 19:19:00,
2013-03-17 15:24:00,37.1,8.5,30.01,NW,325,9.0,19.0,30,0.00,,,0.00,Wunderground v.1.15,2013-03-17 19:24:00,
2013-03-17 15:29:00,37.1,8.5,30.02,NW,309,12.0,21.0,30,0.00,,,0.00,Wunderground v.1.15,2013-03-17 19:29:00,
2013-03-17 15:34:00,37.0,8.4,30.02,North,360,13.0,16.0,30,0.00,,,0.00,Wunderground v.1.15,2013-03-17 19:34:00,
2013-03-17 15:39:00,37.0,8.4,30.02,NNW,333,10.0,19.0,30,0.00,,,0.00,Wunderground v.1.15,2013-03-17 19:39:00,
2013-03-17 15:44:00,37.1,9.2,30.02,WNW,296,4.0,16.0,31,0.00,,,0.00,Wunderground v.1.15,2013-03-17 19:44:00,
2013-03-17 15:50:00,37.3,7.9,30.03,North,355,10.0,10.0,29,0.00,,,0.00,Wunderground v.1.15,2013-03-17 19:50:00,
2013-03-17 15:55:00,37.2,7.8,30.03,NNW,333,7.0,17.0,29,0.00,,,0.00,Wunderground v.1.15,2013-03-17 19:55:00,
2013-03-17 16:00:00,37.0,6.9,30.03,NNW,346,16.0,16.0,28,0.00,,,0.00,Wunderground v.1.15,2013-03-17 20:00:00,
2013-03-17 16:05:00,36.7,7.4,30.03,NW,311,8.0,17.0,29,0.00,,,0.00,Wunderground v.1.15,2013-03-17 20:05:00,
2013-03-17 16:10:00,36.8,7.5,30.03,NNW,328,7.0,10.0,29,0.00,,,0.00,Wunderground v.1.15,2013-03-17 20:10:00,
2013-03-17 16:15:00,36.8,6.7,30.03,NNW,344,12.0,22.0,28,0.00,,,0.00,Wunderground v.1.15,2013-03-17 20:15:00,
2013-03-17 16:20:00,36.7,8.1,30.03,NW,322,12.0,12.0,30,0.00,,,0.00,Wunderground v.1.15,2013-03-17 20:20:00,
2013-03-17 16:25:00,36.7,8.1,30.04,North,360,10.0,20.0,30,0.00,,,0.00,Wunderground v.1.15,2013-03-17 20:25:00,
2013-03-17 16:30:00,36.6,7.3,30.04,NW,321,11.0,12.0,29,0.00,,,0.00,Wunderground v.1.15,2013-03-17 20:30:00,
2013-03-17 16:35:00,36.2,6.9,30.05,NNW,337,17.0,19.0,29,0.00,,,0.00,Wunderground v.1.15,2013-03-17 20:35:00,
2013-03-17 16:40:00,36.1,7.6,30.04,NNW,344,17.0,19.0,30,0.00,,,0.00,Wunderground v.1.15,2013-03-17 20:40:00,
2013-03-17 16:45:00,36.1,7.6,30.04,NW,306,4.0,19.0,30,0.00,,,0.00,Wunderground v.1.15,2013-03-17 20:45:00,
2013-03-17 16:50:00,36.0,7.5,30.05,NNW,330,11.0,13.0,30,0.00,,,0.00,Wunderground v.1.15,2013-03-17 20:50:00,
2013-03-17 16:55:00,35.9,7.4,30.05,NW,322,9.0,18.0,30,0.00,,,0.00,Wunderground v.1.15,2013-03-17 20:55:00,
2013-03-17 17:00:00,35.8,7.3,30.05,NW,326,2.0,11.0,30,0.00,,,0.00,Wunderground v.1.15,2013-03-17 21:00:00,
2013-03-17 17:05:00,35.8,8.1,30.05,NNW,340,5.0,11.0,31,0.00,,,0.00,Wunderground v.1.15,2013-03-17 21:05:00,
2013-03-17 17:10:00,35.9,8.2,30.06,NNW,339,18.0,18.0,31,0.00,,,0.00,Wunderground v.1.15,2013-03-17 21:10:00,
2013-03-17 17:15:00,35.7,8.0,30.06,NW,304,5.0,18.0,31,0.00,,,0.00,Wunderground v.1.15,2013-03-17 21:15:00,
2013-03-17 17:20:00,35.7,8.7,30.07,West,273,10.0,15.0,32,0.00,,,0.00,Wunderground v.1.15,2013-03-17 21:20:00,
2013-03-17 17:25:00,35.5,7.8,30.07,NW,326,9.0,16.0,31,0.00,,,0.00,Wunderground v.1.15,2013-03-17 21:25:00,
2013-03-17 17:30:00,35.4,7.7,30.07,NW,312,10.0,13.0,31,0.00,,,0.00,Wunderground v.1.15,2013-03-17 21:30:00,
2013-03-17 17:35:00,35.4,8.4,30.07,NNW,339,7.0,13.0,32,0.00,,,0.00,Wunderground v.1.15,2013-03-17 21:35:00,
2013-03-17 17:40:00,35.3,8.3,30.07,North,350,6.0,11.0,32,0.00,,,0.00,Wunderground v.1.15,2013-03-17 21:40:00,
2013-03-17 17:45:00,35.1,8.2,30.08,NNW,342,11.0,16.0,32,0.00,,,0.00,Wunderground v.1.15,2013-03-17 21:45:00,
2013-03-17 17:50:00,34.9,8.7,30.08,North,350,8.0,9.0,33,0.00,,,0.00,Wunderground v.1.15,2013-03-17 21:50:00,
2013-03-17 17:55:00,34.8,7.9,30.08,NNW,342,6.0,16.0,32,0.00,,,0.00,Wunderground v.1.15,2013-03-17 21:55:00,
2013-03-17 18:00:00,34.6,8.4,30.08,NNW,331,8.0,14.0,33,0.00,,,0.00,Wunderground v.1.15,2013-03-17 22:00:00,
2013-03-17 18:05:00,34.4,7.5,30.08,NNW,331,11.0,15.0,32,0.00,,,0.00,Wunderground v.1.15,2013-03-17 22:05:00,
2013-03-17 18:10:00,34.4,8.2,30.09,NNW,328,5.0,9.0,33,0.00,,,0.00,Wunderground v.1.15,2013-03-17 22:10:00,
2013-03-17 18:15:00,34.4,8.2,30.09,NNE,24,5.0,13.0,33,0.00,,,0.00,Wunderground v.1.15,2013-03-17 22:15:00,
2013-03-17 18:20:00,34.4,8.2,30.09,WNW,298,9.0,9.0,33,0.00,,,0.00,Wunderground v.1.15,2013-03-17 22:20:00,
2013-03-17 18:25:00,34.2,8.7,30.10,NNW,341,9.0,15.0,34,0.00,,,0.00,Wunderground v.1.15,2013-03-17 22:25:00,
2013-03-17 18:30:00,33.9,8.4,30.09,NNW,340,10.0,14.0,34,0.00,,,0.00,Wunderground v.1.15,2013-03-17 22:30:00,
2013-03-17 18:35:00,33.7,8.3,30.10,NW,319,5.0,14.0,34,0.00,,,0.00,Wunderground v.1.15,2013-03-17 22:35:00,
2013-03-17 18:40:00,33.5,8.1,30.10,West,275,6.0,8.0,34,0.00,,,0.00,Wunderground v.1.15,2013-03-17 22:40:00,
2013-03-17 18:45:00,33.3,8.6,30.11,West,281,2.0,9.0,35,0.00,,,0.00,Wunderground v.1.15,2013-03-17 22:45:00,
2013-03-17 18:50:00,33.2,8.5,30.11,NW,319,5.0,7.0,35,0.00,,,0.00,Wunderground v.1.15,2013-03-17 22:50:00,
2013-03-17 18:55:00,33.0,8.3,30.11,WNW,292,4.0,9.0,35,0.00,,,0.00,Wunderground v.1.15,2013-03-17 22:55:00,
2013-03-17 19:00:00,32.9,8.2,30.12,NW,324,3.0,5.0,35,0.00,,,0.00,Wunderground v.1.15,2013-03-17 23:00:00,
2013-03-17 19:05:00,32.9,8.8,30.12,NNW,337,6.0,7.0,36,0.00,,,0.00,Wunderground v.1.15,2013-03-17 23:05:00,
2013-03-17 19:10:00,32.7,8.0,30.13,North,9,4.0,7.0,35,0.00,,,0.00,Wunderground v.1.15,2013-03-17 23:10:00,
2013-03-17 19:16:00,32.6,7.9,30.13,NW,309,4.0,9.0,35,0.00,,,0.00,Wunderground v.1.15,2013-03-17 23:16:00,
2013-03-17 19:21:00,32.5,8.5,30.13,NW,321,6.0,8.0,36,0.00,,,0.00,Wunderground v.1.15,2013-03-17 23:21:00,
2013-03-17 19:26:00,32.4,8.4,30.14,NNW,342,4.0,8.0,36,0.00,,,0.00,Wunderground v.1.15,2013-03-17 23:26:00,
2013-03-17 19:31:00,32.3,8.3,30.14,NW,313,5.0,5.0,36,0.00,,,0.00,Wunderground v.1.15,2013-03-17 23:31:00,
2013-03-17 19:36:00,32.1,8.7,30.15,NW,319,2.0,8.0,37,0.00,,,0.00,Wunderground v.1.15,2013-03-17 23:36:00,
2013-03-17 19:41:00,32.0,8.0,30.15,North,360,2.0,6.0,36,0.00,,,0.00,Wunderground v.1.15,2013-03-17 23:41:00,
2013-03-17 19:46:00,32.0,7.4,30.15,NNW,346,4.0,7.0,35,0.00,,,0.00,Wunderground v.1.15,2013-03-17 23:46:00,
2013-03-17 19:51:00,31.9,7.3,30.16,North,355,2.0,5.0,35,0.00,,,0.00,Wunderground v.1.15,2013-03-17 23:51:00,
2013-03-17 19:56:00,31.9,7.9,30.16,North,350,2.0,7.0,36,0.00,,,0.00,Wunderground v.1.15,2013-03-17 23:56:00,
2013-03-17 20:01:00,31.7,7.7,30.16,North,350,4.0,4.0,36,0.00,,,0.00,Wunderground v.1.15,2013-03-18 00:01:00,
2013-03-17 20:06:00,31.6,7.7,30.17,North,355,5.0,6.0,36,0.00,,,0.00,Wunderground v.1.15,2013-03-18 00:06:00,
2013-03-17 20:11:00,31.5,7.6,30.17,NNW,343,5.0,5.0,36,0.00,,,0.00,Wunderground v.1.15,2013-03-18 00:11:00,
2013-03-17 20:16:00,31.4,8.1,30.17,North,355,4.0,5.0,37,0.00,,,0.00,Wunderground v.1.15,2013-03-18 00:16:00,
2013-03-17 20:21:00,31.3,8.0,30.18,NNW,341,5.0,5.0,37,0.00,,,0.00,Wunderground v.1.15,2013-03-18 00:21:00,
2013-03-17 20:26:00,31.2,8.5,30.17,NNW,337,2.0,7.0,38,0.00,,,0.00,Wunderground v.1.15,2013-03-18 00:26:00,
2013-03-17 20:31:00,31.0,8.3,30.18,NW,318,3.0,5.0,38,0.00,,,0.00,Wunderground v.1.15,2013-03-18 00:31:00,
2013-03-17 20:36:00,30.8,8.7,30.18,NW,316,3.0,5.0,39,0.00,,,0.00,Wunderground v.1.15,2013-03-18 00:36:00,
2013-03-17 20:41:00,30.6,8.0,30.18,NW,319,5.0,5.0,38,0.00,,,0.00,Wunderground v.1.15,2013-03-18 00:41:00,
2013-03-17 20:47:00,30.5,8.4,30.19,NW,304,5.0,9.0,39,0.00,,,0.00,Wunderground v.1.15,2013-03-18 00:47:00,
2013-03-17 20:52:00,30.4,8.4,30.19,NW,314,4.0,7.0,39,0.00,,,0.00,Wunderground v.1.15,2013-03-18 00:52:00,
2013-03-17 20:57:00,30.4,7.8,30.19,NNW,327,5.0,7.0,38,0.00,,,0.00,Wunderground v.1.15,2013-03-18 00:57:00,
2013-03-17 21:02:00,30.5,7.3,30.20,North,351,3.0,9.0,37,0.00,,,0.00,Wunderground v.1.15,2013-03-18 01:02:00,
2013-03-17 21:07:00,30.5,7.3,30.20,NNW,333,3.0,9.0,37,0.00,,,0.00,Wunderground v.1.15,2013-03-18 01:07:00,
2013-03-17 21:12:00,30.5,7.3,30.20,NNW,331,5.0,12.0,37,0.00,,,0.00,Wunderground v.1.15,2013-03-18 01:12:00,
2013-03-17 21:17:00,30.5,6.7,30.21,NNW,342,2.0,12.0,36,0.00,,,0.00,Wunderground v.1.15,2013-03-18 01:17:00,
2013-03-17 21:22:00,30.5,6.1,30.21,North,10,2.0,9.0,35,0.00,,,0.00,Wunderground v.1.15,2013-03-18 01:22:00,
2013-03-17 21:27:00,30.4,6.0,30.21,NNE,25,8.0,9.0,35,0.00,,,0.00,Wunderground v.1.15,2013-03-18 01:27:00,
2013-03-17 21:32:00,30.3,5.9,30.22,North,355,3.0,8.0,35,0.00,,,0.00,Wunderground v.1.15,2013-03-18 01:32:00,
2013-03-17 21:37:00,30.3,5.9,30.22,NNW,344,4.0,10.0,35,0.00,,,0.00,Wunderground v.1.15,2013-03-18 01:37:00,
2013-03-17 21:42:00,30.2,6.4,30.22,NNE,24,4.0,6.0,36,0.00,,,0.00,Wunderground v.1.15,2013-03-18 01:42:00,
2013-03-17 21:47:00,30.1,6.3,30.23,North,355,4.0,9.0,36,0.00,,,0.00,Wunderground v.1.15,2013-03-18 01:47:00,
2013-03-17 21:52:00,30.0,5.6,30.23,North,355,5.0,7.0,35,0.00,,,0.00,Wunderground v.1.15,2013-03-18 01:52:00,
2013-03-17 21:58:00,29.9,6.1,30.23,NNW,340,3.0,7.0,36,0.00,,,0.00,Wunderground v.1.15,2013-03-18 01:58:00,
2013-03-17 22:03:00,29.8,6.1,30.23,NNW,327,6.0,7.0,36,0.00,,,0.00,Wunderground v.1.15,2013-03-18 02:03:00,
2013-03-17 22:08:00,29.7,6.0,30.24,North,5,4.0,8.0,36,0.00,,,0.00,Wunderground v.1.15,2013-03-18 02:08:00,
2013-03-17 22:13:00,29.6,7.1,30.24,NNW,346,4.0,7.0,38,0.00,,,0.00,Wunderground v.1.15,2013-03-18 02:13:00,
2013-03-17 22:18:00,29.4,6.9,30.24,NNW,344,3.0,7.0,38,0.00,,,0.00,Wunderground v.1.15,2013-03-18 02:18:00,
2013-03-17 22:23:00,29.3,6.8,30.24,NNW,335,3.0,8.0,38,0.00,,,0.00,Wunderground v.1.15,2013-03-18 02:23:00,
2013-03-17 22:28:00,29.1,7.2,30.25,North,355,7.0,8.0,39,0.00,,,0.00,Wunderground v.1.15,2013-03-18 02:28:00,
2013-03-17 22:33:00,29.0,7.1,30.25,North,5,3.0,6.0,39,0.00,,,0.00,Wunderground v.1.15,2013-03-18 02:33:00,
2013-03-17 22:38:00,28.9,7.0,30.25,North,355,3.0,6.0,39,0.00,,,0.00,Wunderground v.1.15,2013-03-18 02:38:00,
2013-03-17 22:43:00,28.8,6.9,30.25,North,355,6.0,8.0,39,0.00,,,0.00,Wunderground v.1.15,2013-03-18 02:43:00,
2013-03-17 22:48:00,28.7,6.8,30.26,NNW,342,5.0,10.0,39,0.00,,,0.00,Wunderground v.1.15,2013-03-18 02:48:00,
2013-03-17 22:53:00,28.6,6.7,30.26,NNE,17,6.0,9.0,39,0.00,,,0.00,Wunderground v.1.15,2013-03-18 02:53:00,
2013-03-17 22:58:00,28.4,6.0,30.27,North,355,6.0,12.0,38,0.00,,,0.00,Wunderground v.1.15,2013-03-18 02:58:00,
2013-03-17 23:03:00,28.3,5.9,30.27,NNW,347,6.0,12.0,38,0.00,,,0.00,Wunderground v.1.15,2013-03-18 03:03:00,
2013-03-17 23:08:00,28.2,5.8,30.27,North,360,8.0,12.0,38,0.00,,,0.00,Wunderground v.1.15,2013-03-18 03:08:00,
2013-03-17 23:13:00,28.1,6.3,30.27,NNE,26,4.0,10.0,39,0.00,,,0.00,Wunderground v.1.15,2013-03-18 03:13:00,
2013-03-17 23:18:00,27.9,5.5,30.28,NNE,24,5.0,10.0,38,0.00,,,0.00,Wunderground v.1.15,2013-03-18 03:18:00,
2013-03-17 23:23:00,27.8,5.4,30.28,North,360,2.0,9.0,38,0.00,,,0.00,Wunderground v.1.15,2013-03-18 03:23:00,
2013-03-17 23:28:00,27.6,5.3,30.28,North,11,5.0,9.0,38,0.00,,,0.00,Wunderground v.1.15,2013-03-18 03:28:00,
2013-03-17 23:33:00,27.5,5.7,30.28,NNE,29,3.0,15.0,39,0.00,,,0.00,Wunderground v.1.15,2013-03-18 03:33:00,
2013-03-17 23:38:00,27.4,5.1,30.28,North,355,5.0,15.0,38,0.00,,,0.00,Wunderground v.1.15,2013-03-18 03:38:00,
2013-03-17 23:43:00,27.2,4.9,30.29,North,355,8.0,10.0,38,0.00,,,0.00,Wunderground v.1.15,2013-03-18 03:43:00,
2013-03-17 23:48:00,27.2,4.9,30.29,North,360,3.0,10.0,38,0.00,,,0.00,Wunderground v.1.15,2013-03-18 03:48:00,
2013-03-17 23:53:00,27.1,4.8,30.29,NNE,29,6.0,8.0,38,0.00,,,0.00,Wunderground v.1.15,2013-03-18 03:53:00,
2013-03-17 23:58:00,27.0,5.3,30.29,NNW,340,4.0,8.0,39,0.00,,,0.00,Wunderground v.1.15,2013-03-18 03:58:00,